EW4918 Weather Reports


time (UTC)temp
C
wind
direction
speed
KPH
gust
KPH
rain 1hr
cm
rain 24hr
cm
rain mn
cm
humidity
%
barometer
mb
20260510061018 8 165 0.0 0.0 0.00 0.36 0.36 95 1007.9
20260510060517 8 209 0.0 1.6 0.00 0.36 0.36 95 1007.8
20260510060016 8 207 0.0 0.0 0.00 0.36 0.36 95 1007.7
20260510055515 8 194 0.0 0.0 0.00 0.36 0.36 95 1007.8
20260510055021 8 173 0.0 0.0 0.00 0.36 0.36 95 1007.8
20260510054520 8 199 0.0 0.0 0.00 0.36 0.36 95 1007.7
20260510054020 8 177 0.0 0.0 0.00 0.36 0.36 95 1007.7
20260510053519 9 172 0.0 9.7 0.00 0.36 0.36 95 1007.6
20260510053018 9 190 0.0 0.0 0.00 0.36 0.36 95 1007.7
20260510051520 9 213 0.0 1.6 0.00 0.33 0.33 95 1007.7
20260510051019 9 196 0.0 0.0 0.00 0.33 0.33 95 1007.8
20260510050519 9 202 0.0 0.0 0.00 0.30 0.30 95 1007.8
20260510050017 9 182 0.0 0.0 0.00 0.28 0.28 95 1007.6
20260510045516 9 190 0.0 1.6 0.00 0.25 0.25 94 1007.7
20260510045016 9 189 0.0 0.0 0.00 0.25 0.25 94 1007.9
20260510044521 9 190 0.0 0.0 0.00 0.23 0.23 93 1007.9
20260510044020 10 184 0.0 0.0 0.00 0.20 0.20 93 1007.9
20260510043519 10 198 0.0 0.0 0.00 0.18 0.18 91 1007.9
20260510043019 10 175 1.6 9.7 0.00 0.13 0.13 90 1008.0
20260510042518 10 231 1.6 12.9 0.00 0.03 0.03 88 1008.1
20260510042017 10 196 0.0 0.0 0.00 0.00 0.00 87 1007.6
20260510041517 10 179 1.6 4.8 0.00 0.00 0.00 87 1007.3
20260510041016 10 184 0.0 4.8 0.00 0.00 0.00 87 1007.2
20260510040515 10 197 1.6 17.7 0.00 0.00 0.00 87 1007.3
20260510040020 10 176 0.0 4.8 0.00 0.00 0.00 86 1007.4
20260510035519 10 180 0.0 0.0 0.00 0.00 0.00 86 1007.3
20260510035018 10 173 0.0 1.6 0.00 0.00 0.00 87 1007.3
20260510034016 10 169 1.6 8.0 0.00 0.00 0.00 88 1006.9
20260510033516 9 191 0.0 0.0 0.00 0.00 0.00 88 1006.8
20260510033015 9 165 0.0 4.8 0.00 0.00 0.00 89 1006.5
20260510032520 9 163 0.0 0.0 0.00 0.00 0.00 89 1006.6
20260510032020 9 165 0.0 1.6 0.00 0.00 0.00 90 1006.7
20260510031519 8 146 0.0 0.0 0.00 0.00 0.00 91 1006.6
20260510031018 8 161 0.0 0.0 0.00 0.00 0.00 92 1006.7
20260510030518 8 179 0.0 0.0 0.00 0.00 0.00 92 1006.7
20260510030015 8 179 0.0 1.6 0.00 0.00 0.00 92 1006.8
20260510025515 8 179 0.0 1.6 0.00 0.00 0.00 92 1006.8
20260510025020 8 146 0.0 0.0 0.00 0.00 0.00 92 1006.8
20260510024520 8 144 0.0 0.0 0.00 0.00 0.00 92 1006.8
20260510023516 8 128 0.0 0.0 0.00 0.00 0.00 92 1007.0
20260510023016 7 88 0.0 0.0 0.00 0.00 0.00 91 1007.0
20260510022515 7 243 0.0 0.0 0.00 0.00 0.00 91 1007.0
20260510022015 8 244 0.0 0.0 0.00 0.00 0.00 90 1007.0
20260510021520 8 61 0.0 0.0 0.00 0.00 0.00 90 1006.9
20260510021020 8 145 0.0 0.0 0.00 0.00 0.00 89 1007.2
20260510020016 8 78 0.0 0.0 0.00 0.00 0.00 90 1007.4
20260510015515 8 175 0.0 0.0 0.00 0.00 0.00 90 1007.5
20260510014017 8 174 0.0 0.0 0.00 0.00 0.00 89 1007.7
20260510013516 8 174 0.0 0.0 0.00 0.00 0.00 89 1007.6
20260510013016 8 174 0.0 0.0 0.00 0.00 0.00 89 1007.6
20260510012515 8 174 0.0 0.0 0.00 0.00 0.00 89 1007.6
20260510012020 8 174 0.0 0.0 0.00 0.00 0.00 89 1007.7
20260510011018 8 174 0.0 0.0 0.00 0.00 0.00 87 1007.3
20260510010517 8 174 0.0 0.0 0.00 0.00 0.00 87 1007.3
20260510010016 8 174 0.0 1.6 0.00 0.00 0.00 86 1007.2
20260510005520 9 174 0.0 0.0 0.00 0.00 0.00 86 1007.1
20260510005019 9 174 0.0 0.0 0.00 0.00 0.00 86 1007.2
20260510004017 9 172 0.0 0.0 0.00 0.00 0.00 86 1007.0
20260510003516 9 172 0.0 0.0 0.00 0.00 0.00 85 1007.0
20260510003016 9 176 0.0 0.0 0.00 0.00 0.00 86 1007.2
20260510002515 9 200 0.0 0.0 0.00 0.00 0.00 85 1007.2
20260510002020 9 200 0.0 0.0 0.00 0.00 0.00 85 1007.2
20260510001520 9 200 0.0 0.0 0.00 0.00 0.00 85 1007.2
20260510001019 9 200 0.0 0.0 0.00 0.00 0.00 85 1007.4
20260510000016 10 178 0.0 0.0 0.00 0.00 0.00 84 1007.4
20260509235520 10 179 0.0 0.0 0.00 0.00 0.00 84 1007.3
20260509235019 10 180 0.0 0.0 0.00 0.00 0.00 84 1007.3
20260509234519 10 180 0.0 0.0 0.00 0.00 0.00 83 1007.4
20260509233516 10 180 0.0 0.0 0.00 0.00 0.00 83 1007.6
20260509233015 10 187 0.0 0.0 0.00 0.00 0.00 83 1007.6
20260509232019 10 177 0.0 0.0 0.00 0.00 0.00 82 1007.5
20260509231518 10 181 0.0 0.0 0.00 0.00 0.00 82 1007.3
20260509231017 10 171 0.0 1.6 0.00 0.00 0.00 83 1007.3
20260509230517 10 174 1.6 12.9 0.00 0.00 0.00 82 1007.3
20260509230016 10 209 0.0 3.2 0.00 0.00 0.00 82 1007.4
20260509225519 10 187 0.0 0.0 0.00 0.00 0.00 82 1007.4
20260509225018 10 178 0.0 0.0 0.00 0.00 0.00 82 1007.3
20260509224518 10 188 0.0 1.6 0.00 0.00 0.00 81 1007.5
20260509224017 10 199 0.0 0.0 0.00 0.00 0.00 82 1007.4
20260509222017 10 151 0.0 0.0 0.00 0.00 0.00 81 1007.5
20260509221516 10 194 0.0 0.0 0.00 0.00 0.00 82 1007.6
20260509221015 10 185 0.0 0.0 0.00 0.00 0.00 83 1007.4
20260509215515 10 190 0.0 0.0 0.00 0.00 0.00 81 1007.4
20260509215014 10 178 0.0 1.6 0.00 0.00 0.00 81 1007.6
20260509214520 10 157 0.0 1.6 0.00 0.00 0.00 81 1007.7
20260509214019 10 164 0.0 1.6 0.00 0.00 0.00 81 1007.7
20260509213519 10 172 0.0 0.0 0.00 0.00 0.00 81 1007.7
20260509213018 10 197 0.0 3.2 0.00 0.00 0.00 80 1007.8
20260509212517 10 186 0.0 1.6 0.00 0.00 0.00 79 1007.7
20260509212017 10 211 0.0 4.8 0.00 0.00 0.00 79 1007.8
20260509211516 10 113 0.0 1.6 0.00 0.00 0.00 79 1007.9
20260509210520 10 119 0.0 0.0 0.00 0.00 0.00 78 1008.0
20260509210020 10 116 0.0 0.0 0.00 0.00 0.00 77 1007.8
20260509205517 10 151 0.0 1.6 0.00 0.00 0.00 77 1007.7
20260509205017 10 132 0.0 0.0 0.00 0.00 0.00 76 1007.8
20260509204516 11 132 0.0 1.6 0.00 0.00 0.00 76 1007.7
20260509203514 11 127 0.0 0.0 0.00 0.00 0.00 74 1007.9
20260509203019 11 183 1.6 6.4 0.00 0.00 0.00 73 1007.9
20260509202017 11 182 0.0 3.2 0.00 0.00 0.00 72 1008.1
20260509201015 12 130 0.0 3.2 0.00 0.00 0.00 70 1008.1
20260509200520 12 178 0.0 0.0 0.00 0.00 0.00 70 1008.1
20260509200020 12 156 0.0 0.0 0.00 0.00 0.00 68 1008.2
20260509195517 12 189 0.0 0.0 0.00 0.00 0.00 67 1008.2
20260509195017 12 162 0.0 3.2 0.00 0.00 0.00 67 1008.2
20260509194516 12 194 0.0 0.0 0.00 0.00 0.00 68 1008.2
20260509194015 12 186 0.0 0.0 0.00 0.00 0.00 67 1008.1
20260509193515 12 191 0.0 0.0 0.00 0.00 0.00 67 1008.3
20260509193020 12 203 0.0 1.6 0.00 0.00 0.00 65 1008.2
20260509192018 13 180 0.0 0.0 0.00 0.00 0.00 63 1008.3
20260509191015 14 141 0.0 0.0 0.00 0.00 0.00 60 1008.3
20260509190520 13 167 0.0 0.0 0.00 0.00 0.00 63 1008.3
20260509190019 13 192 1.6 4.8 0.00 0.00 0.00 63 1008.4
20260509185517 13 178 0.0 1.6 0.00 0.00 0.00 62 1008.4
20260509185017 13 188 0.0 0.0 0.00 0.00 0.00 59 1008.5
20260509184516 14 187 0.0 9.7 0.00 0.00 0.00 61 1008.4
20260509184015 14 178 0.0 0.0 0.00 0.00 0.00 64 1008.5
20260509183520 13 161 3.2 8.0 0.00 0.00 0.00 63 1008.5
20260509183019 13 184 0.0 0.0 0.00 0.00 0.00 63 1008.6
20260509182519 13 175 4.8 14.5 0.00 0.00 0.00 60 1008.7
20260509182018 13 159 0.0 0.0 0.00 0.00 0.00 60 1008.8
20260509181518 14 173 1.6 4.8 0.00 0.00 0.00 61 1008.7
20260509181017 14 180 1.6 12.9 0.00 0.00 0.00 59 1008.7
20260509180015 14 126 0.0 0.0 0.00 0.00 0.00 60 1008.8
20260509175519 13 149 0.0 0.0 0.00 0.00 0.00 57 1008.9
20260509175018 13 185 1.6 8.0 0.00 0.00 0.00 61 1008.8
20260509174015 13 196 0.0 0.0 0.00 0.00 0.00 60 1009.0
20260509173515 12 174 0.0 0.0 0.00 0.00 0.00 61 1009.0
20260509173020 12 107 0.0 0.0 0.00 0.00 0.00 60 1009.2
20260509172519 12 200 0.0 0.0 0.00 0.00 0.00 60 1009.4
20260509172019 12 185 0.0 1.6 0.00 0.00 0.00 59 1009.4
20260509171518 12 94 0.0 3.2 0.00 0.00 0.00 61 1009.3
20260509171017 12 190 0.0 0.0 0.00 0.00 0.00 58 1009.5
20260509170015 12 188 1.6 8.0 0.00 0.00 0.00 57 1009.7
20260509165532 12 181 0.0 0.0 0.00 0.00 0.00 55 1009.7
20260509165018 12 162 0.0 0.0 0.00 0.00 0.00 56 1009.8
20260509164517 12 184 0.0 0.0 0.00 0.00 0.00 55 1009.7
20260509164017 12 186 0.0 0.0 0.00 0.00 0.00 56 1009.7
20260509163516 12 119 0.0 3.2 0.00 0.00 0.00 56 1009.8
20260509163016 12 175 0.0 0.0 0.00 0.00 0.00 54 1009.8
20260509162515 12 184 0.0 0.0 0.00 0.00 0.00 53 1009.8
20260509162020 13 191 0.0 6.4 0.00 0.00 0.00 51 1009.9
20260509161520 13 169 0.0 1.6 0.00 0.00 0.00 49 1010.0
20260509161019 13 180 0.0 0.0 0.00 0.00 0.00 51 1010.0
20260509160518 13 158 0.0 0.0 0.00 0.00 0.00 49 1010.0
20260509160018 13 168 0.0 0.0 0.00 0.00 0.00 48 1010.0
20260509155517 13 167 3.2 8.0 0.00 0.00 0.00 47 1010.1
20260509155015 13 195 0.0 0.0 0.00 0.00 0.00 47 1010.3
20260509154520 13 220 1.6 6.4 0.00 0.00 0.00 47 1010.4
20260509154019 13 186 0.0 1.6 0.00 0.00 0.00 44 1010.4
20260509153519 13 154 0.0 4.8 0.00 0.00 0.00 50 1010.5
20260509152517 13 121 0.0 0.0 0.00 0.00 0.00 45 1010.6
20260509152016 13 144 0.0 0.0 0.00 0.00 0.00 46 1010.7
20260509151019 13 171 0.0 1.6 0.00 0.00 0.00 43 1010.8
20260509150519 13 69 1.6 12.9 0.00 0.00 0.00 44 1010.8
20260509150018 13 117 0.0 0.0 0.00 0.00 0.00 46 1010.9
20260509145015 13 157 0.0 1.6 0.00 0.00 0.00 44 1010.9
20260509144018 12 179 0.0 0.0 0.00 0.00 0.00 47 1011.0
20260509143518 12 148 0.0 0.0 0.00 0.00 0.00 48 1011.2
20260509143017 12 128 0.0 0.0 0.00 0.00 0.00 46 1011.2
20260509142516 12 105 0.0 0.0 0.00 0.00 0.00 48 1011.2
20260509142016 11 194 0.0 0.0 0.00 0.00 0.00 49 1011.2
20260509141521 11 157 0.0 0.0 0.00 0.00 0.00 47 1011.2
20260509141020 11 178 0.0 0.0 0.00 0.00 0.00 47 1011.3
20260509140519 11 147 0.0 0.0 0.00 0.00 0.00 48 1011.3
20260509140019 11 135 0.0 0.0 0.00 0.00 0.00 51 1011.4
20260509135518 11 105 0.0 1.6 0.00 0.00 0.00 52 1011.4
20260509134515 11 171 0.0 0.0 0.00 0.00 0.00 53 1011.4
20260509134014 10 178 0.0 0.0 0.00 0.00 0.00 52 1011.4
20260509133520 10 188 0.0 0.0 0.00 0.00 0.00 51 1011.4
20260509133019 10 166 3.2 6.4 0.00 0.00 0.00 52 1011.5
20260509132519 10 118 0.0 0.0 0.00 0.00 0.00 50 1011.5
20260509132018 10 183 0.0 9.7 0.00 0.00 0.00 54 1011.6
20260509131015 9 144 0.0 0.0 0.00 0.00 0.00 56 1011.7
20260509130520 9 140 0.0 0.0 0.00 0.00 0.00 57 1011.8
20260509130020 8 130 0.0 0.0 0.00 0.00 0.00 55 1011.7
20260509125519 8 157 0.0 0.0 0.00 0.00 0.00 57 1011.6
20260509125017 8 103 0.0 0.0 0.00 0.00 0.00 60 1011.6
20260509124516 8 93 0.0 0.0 0.00 0.00 0.00 60 1011.8
20260509124016 7 92 0.0 0.0 0.00 0.00 0.00 58 1011.9
20260509123020 7 104 0.0 0.0 0.00 0.00 0.00 63 1012.0
20260509122519 6 126 0.0 0.0 0.00 0.00 0.00 67 1011.9
20260509122019 6 105 0.0 0.0 0.00 0.00 0.00 70 1011.9
20260509121518 5 107 0.0 0.0 0.00 0.00 0.00 72 1011.9
20260509120515 3 107 0.0 0.0 0.00 0.00 0.00 77 1011.9
20260509120015 2 107 0.0 0.0 0.00 0.00 0.00 82 1011.9
20260509115520 2 106 0.0 0.0 0.00 0.00 0.00 86 1011.9
20260509115018 1 104 0.0 0.0 0.00 0.00 0.00 88 1012.0
20260509114016 1 296 0.0 0.0 0.00 0.00 0.00 89 1012.0
20260509113515 0 296 0.0 0.0 0.00 0.00 0.00 90 1012.1
20260509112519 0 296 0.0 0.0 0.00 0.00 0.00 91 1012.0
20260509112018 0 296 0.0 0.0 0.00 0.00 0.00 92 1012.0
20260509111517 0 296 0.0 0.0 0.00 0.00 0.00 92 1012.0
20260509111017 0 296 0.0 0.0 0.00 0.00 0.00 93 1012.0
20260509110015 -1 296 0.0 0.0 0.00 0.00 0.00 93 1012.0
20260509105017 -1 296 0.0 0.0 0.00 0.00 0.00 93 1012.1
20260509104517 -1 296 0.0 0.0 0.00 0.00 0.00 93 1012.1
20260509104016 -1 296 0.0 0.0 0.00 0.00 0.00 93 1012.0
20260509103515 -1 296 0.0 0.0 0.00 0.00 0.00 93 1012.1
20260509103021 -1 296 0.0 0.0 0.00 0.00 0.00 93 1012.0
20260509102520 -1 296 0.0 0.0 0.00 0.00 0.00 93 1012.0
20260509102019 -2 296 0.0 0.0 0.00 0.00 0.00 93 1012.1
20260509101518 -2 296 0.0 0.0 0.00 0.00 0.00 93 1012.1
20260509101018 -2 296 0.0 0.0 0.00 0.00 0.00 92 1012.2
20260509100517 -2 296 0.0 0.0 0.00 0.00 0.00 92 1012.1
20260509100016 -2 296 0.0 0.0 0.00 0.00 0.00 92 1012.2
20260509095516 -2 296 0.0 0.0 0.00 0.00 0.00 92 1012.2
20260509095020 -2 296 0.0 0.0 0.00 0.00 0.00 92 1012.2
20260509094519 -2 296 0.0 0.0 0.00 0.00 0.00 92 1012.1
20260509093516 -2 296 0.0 0.0 0.00 0.00 0.00 92 1012.0
20260509093016 -2 296 0.0 0.0 0.00 0.00 0.00 92 1012.0
20260509092020 -1 296 0.0 0.0 0.00 0.00 0.00 91 1011.9
20260509091519 -1 296 0.0 0.0 0.00 0.00 0.00 91 1012.0
20260509091019 -1 296 0.0 0.0 0.00 0.00 0.00 91 1012.0
20260509090518 -1 296 0.0 0.0 0.00 0.00 0.00 91 1012.0
20260509085515 -1 296 0.0 0.0 0.00 0.00 0.00 90 1012.0
20260509085051 -1 296 0.0 0.0 0.00 0.00 0.00 90 1012.0
20260509084519 -1 296 0.0 0.0 0.00 0.00 0.00 90 1012.1
20260509084018 -1 296 0.0 0.0 0.00 0.00 0.00 90 1012.1
20260509083518 -1 296 0.0 0.0 0.00 0.00 0.00 89 1012.3
20260509083017 -1 296 0.0 0.0 0.00 0.00 0.00 89 1012.2
20260509082516 -1 296 0.0 0.0 0.00 0.00 0.00 89 1012.2
20260509082016 -1 296 0.0 0.0 0.00 0.00 0.00 89 1012.2
20260509081515 -1 296 0.0 0.0 0.00 0.00 0.00 89 1012.2
20260509081015 -1 296 0.0 0.0 0.00 0.00 0.00 89 1012.3
20260509080019 -1 296 0.0 0.0 0.00 0.00 0.00 88 1012.2
20260509075518 -1 296 0.0 0.0 0.00 0.00 0.00 88 1012.2
20260509075017 -1 296 0.0 0.0 0.00 0.00 0.00 87 1012.2
20260509074516 -1 296 0.0 0.0 0.00 0.00 0.00 87 1012.2
20260509074015 -1 296 0.0 0.0 0.00 0.00 0.00 87 1012.2
20260509073515 -1 296 0.0 0.0 0.00 0.00 0.00 87 1012.1
20260509072017 -1 296 0.0 0.0 0.00 0.00 0.00 87 1012.0
20260509071516 -1 296 0.0 0.0 0.00 0.00 0.00 87 1011.9
20260509071016 -1 296 0.0 0.0 0.00 0.00 0.00 87 1012.0
20260509070515 -1 296 0.0 0.0 0.00 0.00 0.00 88 1012.1
20260509070014 -1 296 0.0 0.0 0.00 0.00 0.00 88 1012.2
20260509065520 -1 296 0.0 1.6 0.00 0.00 0.00 88 1012.2
20260509065019 -1 296 0.0 0.0 0.00 0.00 0.00 88 1012.1
20260509064517 -1 296 0.0 0.0 0.00 0.00 0.00 88 1012.1
20260509064017 -1 296 0.0 0.0 0.00 0.00 0.00 88 1012.2
20260509063014 -1 296 0.0 0.0 0.00 0.00 0.00 88 1012.2
20260509062520 -1 296 0.0 0.0 0.00 0.00 0.00 88 1012.3
20260509062019 -1 296 0.0 0.0 0.00 0.00 0.00 88 1012.2
20260509061518 -1 296 0.0 0.0 0.00 0.00 0.00 89 1012.3